(°C)
(°C)
-3°
-2°
-2°
-2°
-1°
-0°
ZJZ
ZJZ
ZJZ
ZJZ
ZJZ
ZJZ
ZJZ
(km/h)
21-34
21-35
22-36
23-38
24-40
25-41
27-41
(mm)
3
0
1.1
0
0
0
0
(%)
49
49
58
49
35
29
22

Sluneční výška

/ -7.2°
sun-icon
UV 4
04:31
21:09
Poslední čtvrť (266°)
02:39
10:51

METAR pro 55.31°S 61.5°V (USCC)

Čas Podmínky Teplota/
Rosný bod
Vítr Viditelnost Počasí Oblaky Tlak Změna Nezpracované
MVFR 4°C / 4°C 280º 10kt 6000m - Broken Clouds 1600ft 992 No Significant change. Runway 27: Wet or puddles, 51-100% contamination with <1mm, friction coefficient 0.45. USCC 212200Z 28005MPS 6000 BKN016CB 04/04 Q0992 R27/290045 NOSIG RMK QFE725
MVFR 4°C / 4°C 280º 12kt 6000m Light Showers Rain 3.00mm precipitation Vertical Visibility of 0ft. 992 No Significant change. Runway 27: Wet or puddles, 51-100% contamination with <1mm, friction coefficient 0.45. USCC 212130Z 28006MPS 6000 -SHRA BKN016CB 04/04 Q0992 R27/290045 NOSIG RMK QFE724
MVFR 4°C / 4°C 280º 12kt 6000m Light Showers Rain 3.00mm precipitation Vertical Visibility of 0ft. 992 No Significant change. Runway 27: Wet or puddles, 51-100% contamination with <1mm, friction coefficient 0.45. USCC 212100Z 28006MPS 6000 -SHRA BKN016CB 04/04 Q0992 R27/290045 NOSIG RMK QFE724
MVFR 4°C / 4°C 280º 10kt 6000m - Broken Clouds 1600ft 992 No Significant change. Runway 27: Wet or puddles, 51-100% contamination with <1mm, friction coefficient 0.45. USCC 212030Z 28005MPS 6000 BKN016CB 04/04 Q0992 R27/290045 NOSIG RMK QFE724
MVFR 4°C / 4°C 280º 12kt 6000m - Broken Clouds 1600ft 992 No Significant change. Runway 27: Wet or puddles, 51-100% contamination with <1mm, friction coefficient 0.45. USCC 212000Z 28006MPS 6000 BKN016CB 04/04 Q0992 R27/290045 NOSIG RMK QFE724
MVFR 4°C / 4°C 290º 12kt Gust 21kt 6000m - Broken Clouds 1600ft 992 No Significant change. Runway 27: Wet or puddles, 51-100% contamination with <1mm, friction coefficient 0.45. USCC 211930Z 29006G11MPS 6000 BKN016CB 04/04 Q0992 R27/290045 NOSIG RMK QFE724
MVFR 4°C / 4°C 290º 12kt 6000m - Broken Clouds 1300ft 992 No Significant change. Runway 27: Wet or puddles, 51-100% contamination with <1mm, friction coefficient 0.45. USCC 211900Z 29006MPS 6000 BKN013CB 04/04 Q0992 R27/290045 NOSIG RMK QFE724
MVFR 4°C / 4°C 290º 12kt 6000m - Broken Clouds 1000ft 992 No Significant change. Runway 27: Wet or puddles, 51-100% contamination with <1mm, friction coefficient 0.45. USCC 211830Z 29006MPS 6000 BKN010CB 04/04 Q0992 R27/290045 NOSIG RMK QFE724
MVFR 4°C / 4°C 290º 12kt 6000m - Broken Clouds 1000ft 992 No Significant change. Runway 27: Wet or puddles, 51-100% contamination with <1mm, friction coefficient 0.45. USCC 211800Z 29006MPS 6000 BKN010CB 04/04 Q0992 R27/290045 NOSIG RMK QFE725
MVFR 4°C / 4°C 280º 12kt 5000m Light Showers Rain Mist 3.00mm precipitation Vertical Visibility of 0ft. 992 No Significant change. Runway 27: Wet or puddles, 51-100% contamination with <1mm, friction coefficient 0.45. USCC 211730Z 28006MPS 5000 -SHRA BR BKN010CB 04/04 Q0992 R27/290045 NOSIG RMK QFE725
IFR 3°C / 3°C 290º 12kt 5000m Light Showers Rain Mist 3.00mm precipitation Vertical Visibility of 0ft. 993 No Significant change. Runway 27: Wet or puddles, 51-100% contamination with <1mm, friction coefficient 0.45. USCC 211700Z 29006MPS 5000 -SHRA BR BKN008CB 03/03 Q0993 R27/290045 NOSIG RMK QFE725
IFR 4°C / 4°C 280º 12kt 4000m Light Showers Rain Mist 3.00mm precipitation Vertical Visibility of 0ft. 993 No Significant change. Runway 27: Wet or puddles, 51-100% contamination with <1mm, friction coefficient 0.45. USCC 211630Z 28006MPS 4000 -SHRA BR BKN008CB 04/04 Q0993 R27/290045 NOSIG RMK QFE725
IFR 4°C / 4°C 290º 12kt 4000m Light Showers Rain Mist 3.00mm precipitation Vertical Visibility of 0ft. 993 No Significant change. Runway 27: Wet or puddles, 51-100% contamination with <1mm, friction coefficient 0.45. USCC 211600Z 29006MPS 4000 -SHRA BR BKN008CB 04/04 Q0993 R27/290045 NOSIG RMK QFE725
IFR 4°C / 4°C 300º 14kt 4000m Light Showers Rain Mist 3.00mm precipitation Vertical Visibility of 0ft. 992 No Significant change. Runway 27: Wet or puddles, 51-100% contamination with <1mm, friction coefficient 0.45. USCC 211530Z 30007MPS 4000 -SHRA BR BKN008CB 04/04 Q0992 R27/290045 NOSIG RMK QFE725
IFR 4°C / 4°C 300º 12kt 5000m Light Showers Rain Mist 3.00mm precipitation Vertical Visibility of 0ft. 992 No Significant change. Runway 27: Wet or puddles, 51-100% contamination with <1mm, friction coefficient 0.45. USCC 211500Z 30006MPS 5000 -SHRA BR BKN008CB 04/04 Q0992 R27/290045 NOSIG RMK QFE724
IFR 4°C / 4°C 300º 12kt 5000m Mist Vertical Visibility of 0ft. 992 No Significant change. Runway 27: Wet or puddles, 51-100% contamination with <1mm, friction coefficient 0.45. USCC 211430Z 30006MPS 5000 BR BKN008CB 04/04 Q0992 R27/290045 NOSIG RMK QFE724
IFR 4°C / 4°C 300º 10kt 5000m Light Showers Rain Mist 3.00mm precipitation Vertical Visibility of 0ft. 991 No Significant change. Runway 27: Wet or puddles, 51-100% contamination with <1mm, friction coefficient 0.45. USCC 211400Z 30005MPS 5000 -SHRA BR BKN008CB 04/04 Q0991 R27/290045 NOSIG RMK QFE724
MVFR 5°C / 5°C 310º 14kt 5000m Light Showers Rain Mist 3.00mm precipitation Vertical Visibility of 0ft.
Broken Clouds 1000ft
991 No Significant change. Runway 27: Wet or puddles, 51-100% contamination with <1mm, friction coefficient 0.45. USCC 211330Z 31007MPS 5000 -SHRA BR FEW006 BKN010CB 05/05 Q0991 R27/290045 NOSIG RMK QFE724
MVFR 5°C / 5°C 310º 12kt 5000m Mist Vertical Visibility of 0ft.
Broken Clouds 1000ft
991 No Significant change. Runway 27: Wet or puddles, 51-100% contamination with <1mm, friction coefficient 0.45. USCC 211300Z 31006MPS 5000 BR SCT006 BKN010CB 05/05 Q0991 R27/290045 NOSIG RMK QFE723
IFR 6°C / 6°C 320º 12kt 3000m Light Showers Rain Mist 3.00mm precipitation Vertical Visibility of 0ft.
Broken Clouds 1000ft
990 No Significant change. Runway 27: Wet or puddles, 51-100% contamination with <1mm, friction coefficient 0.45. USCC 211230Z 32006MPS 3000 -SHRA BR SCT006 BKN010CB 06/06 Q0990 R27/290045 NOSIG RMK QFE723
IFR 6°C / 6°C 320º 14kt 3000m Light Showers Rain Mist 3.00mm precipitation Vertical Visibility of 0ft.
Broken Clouds 1000ft
991 No Significant change. Runway 27: Wet or puddles, 51-100% contamination with <1mm, friction coefficient 0.45. USCC 211200Z 32007MPS 3000 -SHRA BR SCT006 BKN010CB 06/06 Q0991 R27/290045 NOSIG RMK QFE723
IFR 6°C / 6°C 330º 12kt 3000m Light Showers Rain Mist 3.00mm precipitation Vertical Visibility of 0ft.
Broken Clouds 1000ft
990 No Significant change. Runway 27: Wet or puddles, 51-100% contamination with <1mm, friction coefficient 0.45. USCC 211130Z 33006MPS 3000 -SHRA BR FEW006 BKN010CB 06/06 Q0990 R27/290045 NOSIG RMK QFE723
IFR 7°C / 7°C 320º 10kt 3000m Light Showers Rain Mist 3.00mm precipitation Vertical Visibility of 0ft.
Broken Clouds 1000ft
990 No Significant change. Runway 27: Wet or puddles, 51-100% contamination with <1mm, friction coefficient 0.45. USCC 211100Z 32005MPS 3000 -SHRA BR FEW006 BKN010CB 07/07 Q0990 R27/290045 NOSIG RMK QFE723
IFR 7°C / 7°C 330º 10kt 2300m Light Showers Rain Mist 3.00mm precipitation Vertical Visibility of 0ft.
Broken Clouds 1000ft
990 Temporary: Visibility 0300. Fog . VV002 RMK QFE723 . Runway 27: Wet or puddles, 51-100% contamination with <1mm, friction coefficient 0.45. USCC 211030Z 33005MPS 2300 -SHRA BR SCT005 BKN010CB 07/07 Q0990 R27/290045 TEMPO 0300 FG VV002 RMK QFE723

MVFR

4°C / 4°C

[Víc]
Vítr 280º 10kt
Viditelnost 6000m
Počasí -
Oblaky Broken Clouds 1600ft
Tlak 992
Změna No Significant change. Runway 27: Wet or puddles, 51-100% contamination with <1mm, friction coefficient 0.45.
Nezpracované USCC 212200Z 28005MPS 6000 BKN016CB 04/04 Q0992 R27/290045 NOSIG RMK QFE725

MVFR

4°C / 4°C

[Víc]
Vítr 280º 12kt
Viditelnost 6000m
Počasí Light Showers Rain 3.00mm precipitation
Oblaky Vertical Visibility of 0ft.
Tlak 992
Změna No Significant change. Runway 27: Wet or puddles, 51-100% contamination with <1mm, friction coefficient 0.45.
Nezpracované USCC 212130Z 28006MPS 6000 -SHRA BKN016CB 04/04 Q0992 R27/290045 NOSIG RMK QFE724

MVFR

4°C / 4°C

[Víc]
Vítr 280º 12kt
Viditelnost 6000m
Počasí Light Showers Rain 3.00mm precipitation
Oblaky Vertical Visibility of 0ft.
Tlak 992
Změna No Significant change. Runway 27: Wet or puddles, 51-100% contamination with <1mm, friction coefficient 0.45.
Nezpracované USCC 212100Z 28006MPS 6000 -SHRA BKN016CB 04/04 Q0992 R27/290045 NOSIG RMK QFE724

MVFR

4°C / 4°C

[Víc]
Vítr 280º 10kt
Viditelnost 6000m
Počasí -
Oblaky Broken Clouds 1600ft
Tlak 992
Změna No Significant change. Runway 27: Wet or puddles, 51-100% contamination with <1mm, friction coefficient 0.45.
Nezpracované USCC 212030Z 28005MPS 6000 BKN016CB 04/04 Q0992 R27/290045 NOSIG RMK QFE724

MVFR

4°C / 4°C

[Víc]
Vítr 280º 12kt
Viditelnost 6000m
Počasí -
Oblaky Broken Clouds 1600ft
Tlak 992
Změna No Significant change. Runway 27: Wet or puddles, 51-100% contamination with <1mm, friction coefficient 0.45.
Nezpracované USCC 212000Z 28006MPS 6000 BKN016CB 04/04 Q0992 R27/290045 NOSIG RMK QFE724

MVFR

4°C / 4°C

[Víc]
Vítr 290º 12kt Gust 21kt
Viditelnost 6000m
Počasí -
Oblaky Broken Clouds 1600ft
Tlak 992
Změna No Significant change. Runway 27: Wet or puddles, 51-100% contamination with <1mm, friction coefficient 0.45.
Nezpracované USCC 211930Z 29006G11MPS 6000 BKN016CB 04/04 Q0992 R27/290045 NOSIG RMK QFE724

MVFR

4°C / 4°C

[Víc]
Vítr 290º 12kt
Viditelnost 6000m
Počasí -
Oblaky Broken Clouds 1300ft
Tlak 992
Změna No Significant change. Runway 27: Wet or puddles, 51-100% contamination with <1mm, friction coefficient 0.45.
Nezpracované USCC 211900Z 29006MPS 6000 BKN013CB 04/04 Q0992 R27/290045 NOSIG RMK QFE724

MVFR

4°C / 4°C

[Víc]
Vítr 290º 12kt
Viditelnost 6000m
Počasí -
Oblaky Broken Clouds 1000ft
Tlak 992
Změna No Significant change. Runway 27: Wet or puddles, 51-100% contamination with <1mm, friction coefficient 0.45.
Nezpracované USCC 211830Z 29006MPS 6000 BKN010CB 04/04 Q0992 R27/290045 NOSIG RMK QFE724

MVFR

4°C / 4°C

[Víc]
Vítr 290º 12kt
Viditelnost 6000m
Počasí -
Oblaky Broken Clouds 1000ft
Tlak 992
Změna No Significant change. Runway 27: Wet or puddles, 51-100% contamination with <1mm, friction coefficient 0.45.
Nezpracované USCC 211800Z 29006MPS 6000 BKN010CB 04/04 Q0992 R27/290045 NOSIG RMK QFE725

MVFR

4°C / 4°C

[Víc]
Vítr 280º 12kt
Viditelnost 5000m
Počasí Light Showers Rain Mist 3.00mm precipitation
Oblaky Vertical Visibility of 0ft.
Tlak 992
Změna No Significant change. Runway 27: Wet or puddles, 51-100% contamination with <1mm, friction coefficient 0.45.
Nezpracované USCC 211730Z 28006MPS 5000 -SHRA BR BKN010CB 04/04 Q0992 R27/290045 NOSIG RMK QFE725

IFR

3°C / 3°C

[Víc]
Vítr 290º 12kt
Viditelnost 5000m
Počasí Light Showers Rain Mist 3.00mm precipitation
Oblaky Vertical Visibility of 0ft.
Tlak 993
Změna No Significant change. Runway 27: Wet or puddles, 51-100% contamination with <1mm, friction coefficient 0.45.
Nezpracované USCC 211700Z 29006MPS 5000 -SHRA BR BKN008CB 03/03 Q0993 R27/290045 NOSIG RMK QFE725

IFR

4°C / 4°C

[Víc]
Vítr 280º 12kt
Viditelnost 4000m
Počasí Light Showers Rain Mist 3.00mm precipitation
Oblaky Vertical Visibility of 0ft.
Tlak 993
Změna No Significant change. Runway 27: Wet or puddles, 51-100% contamination with <1mm, friction coefficient 0.45.
Nezpracované USCC 211630Z 28006MPS 4000 -SHRA BR BKN008CB 04/04 Q0993 R27/290045 NOSIG RMK QFE725

IFR

4°C / 4°C

[Víc]
Vítr 290º 12kt
Viditelnost 4000m
Počasí Light Showers Rain Mist 3.00mm precipitation
Oblaky Vertical Visibility of 0ft.
Tlak 993
Změna No Significant change. Runway 27: Wet or puddles, 51-100% contamination with <1mm, friction coefficient 0.45.
Nezpracované USCC 211600Z 29006MPS 4000 -SHRA BR BKN008CB 04/04 Q0993 R27/290045 NOSIG RMK QFE725

IFR

4°C / 4°C

[Víc]
Vítr 300º 14kt
Viditelnost 4000m
Počasí Light Showers Rain Mist 3.00mm precipitation
Oblaky Vertical Visibility of 0ft.
Tlak 992
Změna No Significant change. Runway 27: Wet or puddles, 51-100% contamination with <1mm, friction coefficient 0.45.
Nezpracované USCC 211530Z 30007MPS 4000 -SHRA BR BKN008CB 04/04 Q0992 R27/290045 NOSIG RMK QFE725

IFR

4°C / 4°C

[Víc]
Vítr 300º 12kt
Viditelnost 5000m
Počasí Light Showers Rain Mist 3.00mm precipitation
Oblaky Vertical Visibility of 0ft.
Tlak 992
Změna No Significant change. Runway 27: Wet or puddles, 51-100% contamination with <1mm, friction coefficient 0.45.
Nezpracované USCC 211500Z 30006MPS 5000 -SHRA BR BKN008CB 04/04 Q0992 R27/290045 NOSIG RMK QFE724

IFR

4°C / 4°C

[Víc]
Vítr 300º 12kt
Viditelnost 5000m
Počasí Mist
Oblaky Vertical Visibility of 0ft.
Tlak 992
Změna No Significant change. Runway 27: Wet or puddles, 51-100% contamination with <1mm, friction coefficient 0.45.
Nezpracované USCC 211430Z 30006MPS 5000 BR BKN008CB 04/04 Q0992 R27/290045 NOSIG RMK QFE724

IFR

4°C / 4°C

[Víc]
Vítr 300º 10kt
Viditelnost 5000m
Počasí Light Showers Rain Mist 3.00mm precipitation
Oblaky Vertical Visibility of 0ft.
Tlak 991
Změna No Significant change. Runway 27: Wet or puddles, 51-100% contamination with <1mm, friction coefficient 0.45.
Nezpracované USCC 211400Z 30005MPS 5000 -SHRA BR BKN008CB 04/04 Q0991 R27/290045 NOSIG RMK QFE724

MVFR

5°C / 5°C

[Víc]
Vítr 310º 14kt
Viditelnost 5000m
Počasí Light Showers Rain Mist 3.00mm precipitation
Oblaky Vertical Visibility of 0ft.
Broken Clouds 1000ft
Tlak 991
Změna No Significant change. Runway 27: Wet or puddles, 51-100% contamination with <1mm, friction coefficient 0.45.
Nezpracované USCC 211330Z 31007MPS 5000 -SHRA BR FEW006 BKN010CB 05/05 Q0991 R27/290045 NOSIG RMK QFE724

MVFR

5°C / 5°C

[Víc]
Vítr 310º 12kt
Viditelnost 5000m
Počasí Mist
Oblaky Vertical Visibility of 0ft.
Broken Clouds 1000ft
Tlak 991
Změna No Significant change. Runway 27: Wet or puddles, 51-100% contamination with <1mm, friction coefficient 0.45.
Nezpracované USCC 211300Z 31006MPS 5000 BR SCT006 BKN010CB 05/05 Q0991 R27/290045 NOSIG RMK QFE723

IFR

6°C / 6°C

[Víc]
Vítr 320º 12kt
Viditelnost 3000m
Počasí Light Showers Rain Mist 3.00mm precipitation
Oblaky Vertical Visibility of 0ft.
Broken Clouds 1000ft
Tlak 990
Změna No Significant change. Runway 27: Wet or puddles, 51-100% contamination with <1mm, friction coefficient 0.45.
Nezpracované USCC 211230Z 32006MPS 3000 -SHRA BR SCT006 BKN010CB 06/06 Q0990 R27/290045 NOSIG RMK QFE723

IFR

6°C / 6°C

[Víc]
Vítr 320º 14kt
Viditelnost 3000m
Počasí Light Showers Rain Mist 3.00mm precipitation
Oblaky Vertical Visibility of 0ft.
Broken Clouds 1000ft
Tlak 991
Změna No Significant change. Runway 27: Wet or puddles, 51-100% contamination with <1mm, friction coefficient 0.45.
Nezpracované USCC 211200Z 32007MPS 3000 -SHRA BR SCT006 BKN010CB 06/06 Q0991 R27/290045 NOSIG RMK QFE723

IFR

6°C / 6°C

[Víc]
Vítr 330º 12kt
Viditelnost 3000m
Počasí Light Showers Rain Mist 3.00mm precipitation
Oblaky Vertical Visibility of 0ft.
Broken Clouds 1000ft
Tlak 990
Změna No Significant change. Runway 27: Wet or puddles, 51-100% contamination with <1mm, friction coefficient 0.45.
Nezpracované USCC 211130Z 33006MPS 3000 -SHRA BR FEW006 BKN010CB 06/06 Q0990 R27/290045 NOSIG RMK QFE723

IFR

7°C / 7°C

[Víc]
Vítr 320º 10kt
Viditelnost 3000m
Počasí Light Showers Rain Mist 3.00mm precipitation
Oblaky Vertical Visibility of 0ft.
Broken Clouds 1000ft
Tlak 990
Změna No Significant change. Runway 27: Wet or puddles, 51-100% contamination with <1mm, friction coefficient 0.45.
Nezpracované USCC 211100Z 32005MPS 3000 -SHRA BR FEW006 BKN010CB 07/07 Q0990 R27/290045 NOSIG RMK QFE723

IFR

7°C / 7°C

[Víc]
Vítr 330º 10kt
Viditelnost 2300m
Počasí Light Showers Rain Mist 3.00mm precipitation
Oblaky Vertical Visibility of 0ft.
Broken Clouds 1000ft
Tlak 990
Změna Temporary: Visibility 0300. Fog . VV002 RMK QFE723 . Runway 27: Wet or puddles, 51-100% contamination with <1mm, friction coefficient 0.45.
Nezpracované USCC 211030Z 33005MPS 2300 -SHRA BR SCT005 BKN010CB 07/07 Q0990 R27/290045 TEMPO 0300 FG VV002 RMK QFE723

TAF pro 55.31°S 61.5°V (USCC)

From till


From till Wind 270º 6kt. Gust 25kt. Visibility 4700m. Light Showers Rain Mist . Broken Clouds 1600ft.
Temporarly from till Wind 280º 16kt. Gust 31kt. Visibility 3900m. Light Showers Rain Light Showers Snow . Broken Clouds 1100ft.

Nezpracované: TAF USCC 212000Z 2121/2221 27003G13MPS 4700 -SHRA BR BKN016CB TEMPO 2121/2221 28008G16MPS 3900 -SHRASN BKN011CB

Radar a krátkodobá předpověď srážek pro 55.31°S 61.5°V

Mrholení
Slabé
Střední
Silné
Velmi silné
Kroupy

Značka lokality je umístněna na 55.31°S 61.5°V. Tato animace ukazuje srážky zaznamenané radarem za poslední hodinu a také 1h předpověď. Mrholení nebo slabé sněžení může být pro radar neviditelné. Intenzita srážek je barevně označena od světle modré po oranžovou.

Aktuální snímky ze satelitu a srážky pro 55.31°S 61.5°V

Značka polohy je umístěna na 55.31°S 61.5°V. [Víc]

Satelitní snímek v reálném čase kombinuje viditelné světlo během dne s infračerveným zářením během noci. V noci není obraz tmavý, protože infračervené záření dokáže detekovat teplotní rozdíly. Nízká oblačnost a mlha se bohužel těžko odlišují od pozemních teplot, a proto mohou být během noci téměř neviditelné. Satelitní snímky z Meteosatu pro Evropu jsou aktualizovány v reálném čase každých 5 minut. Snímky z GOES-16/GOES-17 (Severní a Jižní Amerika) a Himawari (Asie) jsou aktualizovány) každých 10 minut.

Copyright 2022 EUMETSAT / meteoblue. / Copyright 2022 meteoblue

Zpět nahoru